EWG3PL EDDH-EDDL

Flight info

Callsign EWG3PL
Flight time 0h 53m
Altitude 31000
Route IDEKO7G/33 IDEKO N850 ROBEG/N0445F300 DCT DENOL T851 HALME HALME1A
Aircraft A319/M-SDE3FGHIRWY/LB1

Departure

Time 2026-05-04 19:11
Airport Hamburg Helmut Schmidt Airport (EDDH)

Arrival

Time 2026-05-04 20:05
Airport Düsseldorf Airport (EDDL)
Time Latitude Longitude Altitude Speed Heading
2026-05-04 18:47 53.63196 10.00382 51 ft 0 kts 87°
2026-05-04 18:48 53.63245 10.00352 51 ft 0 kts 86°
2026-05-04 18:55 53.63246 10.00379 51 ft 0 kts 86°
2026-05-04 19:00 53.63245 10.00352 51 ft 0 kts 86°
2026-05-04 19:02 53.63243 10.00306 51 ft 4 kts 86°
2026-05-04 19:02 53.63242 10.00270 51 ft 4 kts 103°
2026-05-04 19:02 53.63254 10.00243 51 ft 4 kts 173°
2026-05-04 19:03 53.63272 10.00240 51 ft 0 kts 176°
2026-05-04 19:07 53.63270 10.00240 50 ft 2 kts 176°
2026-05-04 19:08 53.63251 10.00209 51 ft 6 kts 234°
2026-05-04 19:08 53.63213 10.00182 51 ft 7 kts 178°
2026-05-04 19:08 53.63152 10.00187 51 ft 10 kts 176°
2026-05-04 19:08 53.63072 10.00187 51 ft 12 kts 199°
2026-05-04 19:09 53.62994 10.00101 51 ft 12 kts 213°
2026-05-04 19:09 53.62932 10.00025 50 ft 9 kts 228°
2026-05-04 19:09 53.62901 9.99925 50 ft 10 kts 244°
2026-05-04 19:09 53.62867 9.99801 49 ft 13 kts 255°
2026-05-04 19:10 53.62878 9.99736 48 ft 0 kts 327°
2026-05-04 19:10 53.62961 9.99659 49 ft 40 kts 331°
2026-05-04 19:10 53.63390 9.99290 51 ft 98 kts 333°
2026-05-04 19:11 53.64169 9.98620 54 ft 151 kts 332°
2026-05-04 19:11 53.65127 9.97802 630 ft 153 kts 333°
2026-05-04 19:11 53.66090 9.97009 1306 ft 155 kts 333°
2026-05-04 19:11 53.67111 9.96109 1706 ft 176 kts 331°
2026-05-04 19:12 53.68263 9.95059 2054 ft 202 kts 330°
2026-05-04 19:12 53.70926 9.92781 3331 ft 234 kts 331°
2026-05-04 19:12 53.72464 9.91505 3957 ft 255 kts 331°
2026-05-04 19:13 53.74090 9.90165 4913 ft 263 kts 331°
2026-05-04 19:13 53.75751 9.88814 5882 ft 268 kts 331°
2026-05-04 19:13 53.77445 9.87450 6842 ft 272 kts 331°
2026-05-04 19:13 53.77991 9.86984 7139 ft 273 kts 327°
2026-05-04 19:14 53.79767 9.84007 8351 ft 271 kts 295°
2026-05-04 19:14 53.80312 9.79949 9599 ft 270 kts 264°
2026-05-04 19:14 53.79802 9.76903 10459 ft 273 kts 241°
2026-05-04 19:14 53.79051 9.75175 11013 ft 277 kts 226°
2026-05-04 19:15 53.77401 9.73313 11451 ft 301 kts 202°
2026-05-04 19:15 53.75279 9.72399 11748 ft 324 kts 195°
2026-05-04 19:15 53.72299 9.71334 12365 ft 334 kts 194°
2026-05-04 19:15 53.70013 9.70540 13128 ft 338 kts 194°
2026-05-04 19:16 53.68453 9.69994 13637 ft 340 kts 194°
2026-05-04 19:16 53.66144 9.69173 14306 ft 344 kts 195°
2026-05-04 19:16 53.63790 9.68318 14983 ft 348 kts 195°
2026-05-04 19:16 53.61412 9.67439 15671 ft 351 kts 195°
2026-05-04 19:17 53.59011 9.66550 16328 ft 355 kts 195°
2026-05-04 19:17 53.56586 9.65657 16987 ft 358 kts 195°
2026-05-04 19:17 53.54135 9.64759 17651 ft 362 kts 195°
2026-05-04 19:17 53.51662 9.63854 18309 ft 366 kts 195°
2026-05-04 19:18 53.49161 9.62941 18895 ft 369 kts 195°
2026-05-04 19:18 53.46643 9.62023 19521 ft 371 kts 195°
2026-05-04 19:18 53.44143 9.61113 20165 ft 372 kts 195°
2026-05-04 19:18 53.41614 9.60196 20788 ft 374 kts 195°
2026-05-04 19:19 53.39059 9.59275 21421 ft 376 kts 195°
2026-05-04 19:19 53.36492 9.58354 22044 ft 378 kts 195°
2026-05-04 19:19 53.33919 9.57430 22634 ft 379 kts 195°
2026-05-04 19:19 53.31328 9.56496 23234 ft 381 kts 195°
2026-05-04 19:20 53.28732 9.55558 23774 ft 382 kts 195°
2026-05-04 19:20 53.27005 9.54935 24090 ft 384 kts 195°
2026-05-04 19:21 53.15269 9.50717 26158 ft 392 kts 196°
2026-05-04 19:21 53.12638 9.49773 26607 ft 394 kts 196°
2026-05-04 19:21 53.09952 9.48810 27062 ft 395 kts 196°
2026-05-04 19:22 53.07247 9.47842 27513 ft 397 kts 196°
2026-05-04 19:22 53.04539 9.46876 27955 ft 399 kts 196°
2026-05-04 19:22 53.01813 9.45909 28401 ft 401 kts 196°
2026-05-04 19:22 52.99069 9.44952 28837 ft 404 kts 195°
2026-05-04 19:23 52.96280 9.44161 29264 ft 407 kts 193°
2026-05-04 19:23 52.93460 9.43530 29679 ft 410 kts 192°
2026-05-04 19:23 52.90616 9.42984 30074 ft 413 kts 191°
2026-05-04 19:23 52.87787 9.42466 30375 ft 415 kts 191°
2026-05-04 19:24 52.84908 9.41928 30688 ft 417 kts 191°
2026-05-04 19:24 52.82013 9.41356 30914 ft 418 kts 192°
2026-05-04 19:24 52.79157 9.40766 30956 ft 406 kts 192°
2026-05-04 19:25 52.73657 9.39596 30957 ft 393 kts 192°
2026-05-04 19:25 52.68289 9.38432 30968 ft 391 kts 192°
2026-05-04 19:26 52.62890 9.37278 30946 ft 392 kts 192°
2026-05-04 19:26 52.57491 9.35985 30966 ft 391 kts 194°
2026-05-04 19:27 52.52121 9.34514 30963 ft 391 kts 194°
2026-05-04 19:27 52.46754 9.33052 30961 ft 391 kts 194°
2026-05-04 19:28 52.41374 9.31644 30963 ft 391 kts 194°
2026-05-04 19:28 52.36028 9.30273 30948 ft 391 kts 194°
2026-05-04 19:29 52.30649 9.28876 30952 ft 391 kts 194°
2026-05-04 19:29 52.25453 9.26617 30960 ft 383 kts 210°
2026-05-04 19:30 52.21249 9.21521 30706 ft 377 kts 230°
2026-05-04 19:30 52.19675 9.18112 30341 ft 374 kts 237°
2026-05-04 19:30 52.18221 9.14584 29596 ft 377 kts 237°
2026-05-04 19:30 52.16758 9.11056 28945 ft 375 kts 236°
2026-05-04 19:31 52.15300 9.07563 28373 ft 372 kts 236°
2026-05-04 19:31 52.13847 9.04090 27789 ft 370 kts 236°
2026-05-04 19:31 52.12403 9.00641 27202 ft 368 kts 236°
2026-05-04 19:31 52.10965 8.97210 26634 ft 366 kts 236°
2026-05-04 19:32 52.09551 8.93844 26076 ft 365 kts 235°
2026-05-04 19:32 52.08118 8.90441 25522 ft 364 kts 235°
2026-05-04 19:32 52.06689 8.87055 25088 ft 363 kts 235°
2026-05-04 19:32 52.05257 8.83667 24962 ft 364 kts 234°
2026-05-04 19:33 52.03822 8.80271 24799 ft 362 kts 234°
2026-05-04 19:33 52.02412 8.76935 24561 ft 355 kts 234°
2026-05-04 19:33 52.01030 8.73662 24324 ft 347 kts 234°
2026-05-04 19:33 51.99717 8.70427 24089 ft 340 kts 238°
2026-05-04 19:34 51.98667 8.67040 23858 ft 334 kts 245°
2026-05-04 19:34 51.97896 8.63488 23627 ft 333 kts 252°
2026-05-04 19:34 51.97385 8.59808 23357 ft 334 kts 256°
2026-05-04 19:34 51.96924 8.56126 23077 ft 334 kts 256°
2026-05-04 19:35 51.96459 8.52475 22807 ft 334 kts 256°
2026-05-04 19:35 51.95988 8.48795 22536 ft 333 kts 256°
2026-05-04 19:35 51.95517 8.45120 22269 ft 332 kts 256°
2026-05-04 19:35 51.95043 8.41464 22003 ft 331 kts 256°
2026-05-04 19:36 51.94565 8.37813 21742 ft 330 kts 256°
2026-05-04 19:36 51.94085 8.34164 21485 ft 329 kts 256°
2026-05-04 19:36 51.93613 8.30544 21230 ft 328 kts 255°
2026-05-04 19:36 51.93149 8.26958 20977 ft 328 kts 255°
2026-05-04 19:37 51.92681 8.23352 20722 ft 327 kts 255°
2026-05-04 19:37 51.92209 8.19742 20470 ft 326 kts 255°
2026-05-04 19:37 51.91740 8.16144 20221 ft 325 kts 255°
2026-05-04 19:37 51.91266 8.12548 19972 ft 325 kts 255°
2026-05-04 19:38 51.90792 8.08975 19730 ft 324 kts 255°
2026-05-04 19:38 51.90328 8.05461 19489 ft 323 kts 255°
2026-05-04 19:38 51.89860 8.01907 19248 ft 322 kts 255°
2026-05-04 19:38 51.89391 7.98367 19006 ft 321 kts 255°
2026-05-04 19:39 51.88920 7.94829 18766 ft 321 kts 255°
2026-05-04 19:39 51.88450 7.91303 18530 ft 320 kts 255°
2026-05-04 19:39 51.87978 7.87789 18296 ft 319 kts 255°
2026-05-04 19:39 51.87507 7.84277 18029 ft 318 kts 255°
2026-05-04 19:40 51.87034 7.80774 17775 ft 317 kts 255°
2026-05-04 19:40 51.86561 7.77292 17507 ft 317 kts 255°
2026-05-04 19:40 51.86090 7.73816 17245 ft 316 kts 255°
2026-05-04 19:40 51.85519 7.70447 16980 ft 313 kts 247°
2026-05-04 19:41 51.84638 7.67248 16713 ft 311 kts 242°
2026-05-04 19:41 51.83700 7.64099 16465 ft 310 kts 242°
2026-05-04 19:41 51.82771 7.60962 16213 ft 310 kts 242°
2026-05-04 19:41 51.81837 7.57821 15951 ft 309 kts 242°
2026-05-04 19:42 51.80907 7.54697 15697 ft 308 kts 242°
2026-05-04 19:42 51.79982 7.51587 15447 ft 306 kts 242°
2026-05-04 19:42 51.79061 7.48501 15199 ft 304 kts 242°
2026-05-04 19:42 51.78141 7.45416 14949 ft 303 kts 242°
2026-05-04 19:43 51.77227 7.42349 14713 ft 302 kts 242°
2026-05-04 19:43 51.76316 7.39293 14463 ft 301 kts 242°
2026-05-04 19:43 51.75420 7.36278 14221 ft 295 kts 242°
2026-05-04 19:43 51.74540 7.33336 14039 ft 288 kts 242°
2026-05-04 19:44 51.73684 7.30480 13969 ft 276 kts 242°
2026-05-04 19:44 51.72870 7.27773 13977 ft 267 kts 242°
2026-05-04 19:44 51.72051 7.25068 13971 ft 268 kts 242°
2026-05-04 19:44 51.71228 7.22354 13766 ft 269 kts 242°
2026-05-04 19:45 51.70426 7.19630 13492 ft 268 kts 246°
2026-05-04 19:45 51.69771 7.16820 13222 ft 267 kts 248°
2026-05-04 19:45 51.69094 7.14045 12960 ft 265 kts 242°
2026-05-04 19:45 51.68102 7.11559 12698 ft 263 kts 231°
2026-05-04 19:46 51.66992 7.09216 12438 ft 262 kts 231°
2026-05-04 19:46 51.65894 7.06880 12180 ft 261 kts 231°
2026-05-04 19:46 51.64803 7.04544 11925 ft 261 kts 231°
2026-05-04 19:46 51.64082 7.03001 11757 ft 260 kts 231°
2026-05-04 19:47 51.62627 6.99897 11421 ft 259 kts 231°
2026-05-04 19:47 51.61552 6.97613 11174 ft 258 kts 231°
2026-05-04 19:47 51.60468 6.95310 10922 ft 257 kts 232°
2026-05-04 19:47 51.59394 6.93020 10687 ft 255 kts 231°
2026-05-04 19:48 51.58241 6.90885 10435 ft 251 kts 215°
2026-05-04 19:48 51.56656 6.89860 10195 ft 246 kts 185°
2026-05-04 19:48 51.54990 6.90313 9956 ft 246 kts 154°
2026-05-04 19:48 51.53612 6.91936 9811 ft 248 kts 142°
2026-05-04 19:49 51.52271 6.93625 9676 ft 248 kts 144°
2026-05-04 19:49 51.50959 6.95410 9546 ft 249 kts 133°
2026-05-04 19:49 51.49815 6.97489 9296 ft 247 kts 136°
2026-05-04 19:49 51.48585 6.99394 9004 ft 245 kts 138°
2026-05-04 19:50 51.47348 7.01274 8708 ft 244 kts 139°
2026-05-04 19:50 51.46123 7.03144 8413 ft 243 kts 139°
2026-05-04 19:50 51.45297 7.04407 8207 ft 242 kts 138°
2026-05-04 19:50 51.44082 7.06269 8002 ft 241 kts 138°
2026-05-04 19:51 51.42870 7.08127 7978 ft 241 kts 138°
2026-05-04 19:51 51.41672 7.09966 7977 ft 242 kts 138°
2026-05-04 19:51 51.40456 7.11836 7988 ft 242 kts 139°
2026-05-04 19:51 51.39243 7.13719 7985 ft 244 kts 136°
2026-05-04 19:52 51.38407 7.16080 7973 ft 249 kts 106°
2026-05-04 19:52 51.38415 7.18832 7740 ft 251 kts 75°
2026-05-04 19:52 51.39231 7.21318 7363 ft 257 kts 56°
2026-05-04 19:52 51.40298 7.23630 7035 ft 258 kts 54°
2026-05-04 19:53 51.41386 7.25908 6978 ft 258 kts 53°
2026-05-04 19:53 51.42486 7.28200 6985 ft 260 kts 53°
2026-05-04 19:53 51.43588 7.30495 6991 ft 260 kts 53°
2026-05-04 19:53 51.44679 7.32763 6987 ft 260 kts 53°
2026-05-04 19:54 51.45784 7.35056 6990 ft 260 kts 53°
2026-05-04 19:54 51.46890 7.37351 6987 ft 260 kts 53°
2026-05-04 19:54 51.48011 7.39633 6988 ft 260 kts 49°
2026-05-04 19:54 51.49497 7.41248 6983 ft 260 kts 17°
2026-05-04 19:55 51.51264 7.41481 6986 ft 255 kts 346°
2026-05-04 19:55 51.52813 7.40320 6969 ft 247 kts 315°
2026-05-04 19:55 51.53767 7.38151 6708 ft 235 kts 283°
2026-05-04 19:55 51.53870 7.35576 6396 ft 228 kts 258°
2026-05-04 19:56 51.53564 7.33116 6071 ft 227 kts 254°
2026-05-04 19:56 51.53203 7.30647 5752 ft 226 kts 253°
2026-05-04 19:56 51.52830 7.28193 5442 ft 226 kts 253°
2026-05-04 19:56 51.52448 7.25748 5134 ft 225 kts 253°
2026-05-04 19:57 51.52057 7.23315 4827 ft 225 kts 253°
2026-05-04 19:57 51.51666 7.20885 4471 ft 226 kts 253°
2026-05-04 19:57 51.51271 7.18434 4134 ft 227 kts 253°
2026-05-04 19:57 51.50867 7.15984 3799 ft 227 kts 251°
2026-05-04 19:58 51.50112 7.13800 3454 ft 224 kts 227°
2026-05-04 19:58 51.48824 7.12536 3132 ft 222 kts 200°
2026-05-04 19:58 51.47389 7.11600 3003 ft 223 kts 202°
2026-05-04 19:58 51.45959 7.10618 3010 ft 223 kts 205°
2026-05-04 19:59 51.44701 7.09153 3016 ft 225 kts 224°
2026-05-04 19:59 51.44012 7.07902 3016 ft 225 kts 230°
2026-05-04 19:59 51.42436 7.04581 3013 ft 225 kts 232°
2026-05-04 20:00 51.41494 7.02573 3013 ft 225 kts 232°
2026-05-04 20:00 51.39929 6.99254 3013 ft 220 kts 232°
2026-05-04 20:00 51.39042 6.97373 3013 ft 203 kts 232°
2026-05-04 20:00 51.38215 6.95623 2893 ft 192 kts 231°
2026-05-04 20:01 51.37429 6.93961 2672 ft 184 kts 231°
2026-05-04 20:01 51.36667 6.92350 2435 ft 178 kts 231°
2026-05-04 20:01 51.35933 6.90800 2192 ft 172 kts 231°
2026-05-04 20:01 51.35215 6.89285 1961 ft 169 kts 232°
2026-05-04 20:02 51.34502 6.87780 1738 ft 170 kts 231°
2026-05-04 20:02 51.33812 6.86324 1501 ft 161 kts 232°
2026-05-04 20:02 51.33169 6.84967 1295 ft 141 kts 231°
2026-05-04 20:02 51.32598 6.83765 1111 ft 132 kts 230°
2026-05-04 20:03 51.32062 6.82638 940 ft 127 kts 227°
2026-05-04 20:03 51.31521 6.81495 787 ft 128 kts 229°
2026-05-04 20:03 51.30986 6.80353 603 ft 128 kts 232°
2026-05-04 20:03 51.30439 6.79202 447 ft 130 kts 231°
2026-05-04 20:04 51.29888 6.78061 262 ft 129 kts 231°
2026-05-04 20:04 51.29354 6.76936 128 ft 117 kts 231°
2026-05-04 20:04 51.28933 6.76056 129 ft 81 kts 232°
2026-05-04 20:04 51.28648 6.75464 126 ft 57 kts 233°
2026-05-04 20:05 51.28458 6.75066 126 ft 26 kts 232°
2026-05-04 20:05 51.28345 6.74966 123 ft 20 kts 179°
2026-05-04 20:05 51.28221 6.75047 119 ft 15 kts 152°
2026-05-04 20:05 51.28120 6.75128 119 ft 13 kts 154°
2026-05-04 20:06 51.28070 6.75171 115 ft 0 kts 155°
2026-05-04 20:07 51.28053 6.75183 116 ft 6 kts 156°
2026-05-04 20:07 51.28006 6.75218 118 ft 10 kts 154°
2026-05-04 20:07 51.27950 6.75263 115 ft 11 kts 153°
2026-05-04 20:08 51.27878 6.75319 119 ft 11 kts 154°
2026-05-04 20:08 51.27835 6.75393 121 ft 8 kts 90°
2026-05-04 20:08 51.27863 6.75463 122 ft 8 kts 54°
2026-05-04 20:08 51.27895 6.75530 119 ft 7 kts 52°
2026-05-04 20:09 51.27924 6.75590 121 ft 6 kts 52°
2026-05-04 20:09 51.27950 6.75646 122 ft 7 kts 52°
2026-05-04 20:09 51.27991 6.75731 124 ft 12 kts 52°
2026-05-04 20:09 51.28059 6.75875 127 ft 16 kts 52°
2026-05-04 20:10 51.28086 6.75932 126 ft 0 kts 52°
2026-05-04 20:11 51.28094 6.75947 125 ft 5 kts 52°
2026-05-04 20:12 51.28120 6.76002 128 ft 7 kts 53°
2026-05-04 20:12 51.28159 6.76085 125 ft 13 kts 52°
2026-05-04 20:12 51.28207 6.76201 126 ft 8 kts 77°
2026-05-04 20:12 51.28210 6.76208 126 ft 1 kts 54°
2026-05-04 20:13 51.28247 6.76276 126 ft 16 kts 50°
2026-05-04 20:13 51.28322 6.76425 124 ft 18 kts 53°
2026-05-04 20:13 51.28395 6.76580 125 ft 17 kts 53°
2026-05-04 20:13 51.28380 6.76716 126 ft 13 kts 140°
2026-05-04 20:14 51.28307 6.76806 126 ft 14 kts 144°
2026-05-04 20:14 51.28224 6.76847 127 ft 13 kts 185°
2026-05-04 20:14 51.28179 6.76839 128 ft 4 kts 187°
2026-05-04 20:14 51.28162 6.76833 128 ft 2 kts 200°
2026-05-04 20:15 51.28151 6.76804 125 ft 4 kts 256°
2026-05-04 20:15 51.28153 6.76761 127 ft 3 kts 274°
2026-05-04 20:15 51.28155 6.76731 127 ft 1 kts 277°
2026-05-04 20:15 51.28156 6.76722 127 ft 0 kts 277°